Location: Arbon
(43.0005°N, 0.7472°E)
Time: 19:20:11
(UTC+00:00)

Meteor 1-12 Rocket - Pass Details

Date: 07 August 2020
Orbit: 854 x 927 km, 81.2° (Epoch: 24 September)

Event Time Altitude Azimuth Distance (km) Brightness Sun altitude
Exits shadow 01:11:32 88° 200° (SSW) 922 4.2 -28.6°
Maximum altitude 01:11:36 90° 266° (W) 922 4.2 -28.6°
Drops below altitude 10° 01:17:38 10° 10° (N) 2,631 7.7 -28.2°
Sets 01:20:08 0° 11° (N) 3,582 8.7 -28.1°
